This demonstration page uses our WeatherBlox Daily Observations layout. Learn more.

Left ArrowRight Arrow

Hourly Observations for September 6, 2019

Temp ( °F °C ) Dew Point ( °F °C ) Humidity (%) Winds ( mph kmh ) Pressure ( in mb ) Visibility ( mi km ) Precip ( " mm )
12:51 am 00:51 Clear 83 28.3 48 8.9 30 30 VRB 3 6 29.88 1012 10 16 0.00 0.00
1:51 am 01:51 Clear 80 26.7 49 9.4 34 34 N 5 7 29.87 1012 10 16 0.00 0.00
2:51 am 02:51 Clear 78 25.6 49 9.4 36 36 NNE 5 7 29.87 1012 10 16 0.00 0.00
3:51 am 03:51 Clear 77 25 48 8.9 36 36 NNW 5 7 29.88 1012 10 16 0.00 0.00
5:51 am 05:51 Clear 77 25 49 9.4 37 37 Calm 29.90 1013 10 16 0.00 0.00
6:51 am 06:51 Sunny 79 26.1 48 8.9 34 34 S 6 9 29.93 1013 10 16 0.00 0.00
7:51 am 07:51 undefined 82 27.8 48 8.9 31 31 Calm 29.93 1014 10 16 0.00 0.00
8:51 am 08:51 Sunny 91 32.8 51 10.6 26 26 VRB 7 11 29.92 1013 10 16 0.00 0.00
9:51 am 09:51 Sunny 93 33.9 53 11.7 26 26 WNW 14 22 29.91 1013 10 16 0.00 0.00
10:51 am 10:51 Sunny 94 34.4 52 11.1 24 24 WNW 9 15 29.90 1013 10 16 0.00 0.00
11:51 am 11:51 Sunny 97 36.1 49 9.4 20 20 VRB 6 9 29.88 1012 10 16 0.00 0.00
12:51 pm 12:51 Sunny 100 37.8 48 8.9 17 17 WNW 10 17 29.85 1011 10 16 0.00 0.00
1:51 pm 13:51 Sunny 103 39.4 45 7.2 14 14 W 7 11 29.81 1010 10 16 0.00 0.00
2:51 pm 14:51 Sunny 101 38.3 38 3.3 11 11 SW 7 11 29.79 1009 10 16 0.00 0.00
3:51 pm 15:51 Sunny 102 38.9 40 4.4 12 12 WSW 10 17 29.77 1008 10 16 0.00 0.00
4:51 pm 16:51 Sunny 102 38.9 41 5 12 12 W 9 15 29.77 1008 10 16 0.00 0.00
5:51 pm 17:51 Sunny 100 37.8 41 5 13 13 W 7 11 29.76 1008 10 16 0.00 0.00
6:51 pm 18:51 Clear 96 35.6 49 9.4 20 20 NW 16 26 29.77 1008 10 16 0.00 0.00
7:51 pm 19:51 Clear 94 34.4 51 10.6 23 23 NW 13 20 29.78 1009 10 16 0.00 0.00
8:51 pm 20:51 Clear 92 33.3 49 9.4 23 23 WNW 10 17 29.80 1009 10 16 0.00 0.00
9:51 pm 21:51 Clear 89 31.7 50 10 26 26 NW 12 19 29.81 1010 10 16 0.00 0.00
10:51 pm 22:51 Clear 89 31.7 51 10.6 27 27 NW 12 19 29.81 1009 10 16 0.00 0.00
11:51 pm 23:51 Clear 87 30.6 51 10.6 29 29 NW 9 15 29.81 1009 10 16 0.00 0.00

Powered by AerisWeather